Home   Weather   The Settlement   Past weeks

Flag for Christmas Island Past Weather in The Settlement, Christmas Island — Yesterday and Last 2 Weeks

Now
73 °F

Rain. Overcast.


Feels Like: 68 °F
Forecast: 73 / 78 °F
Wind: 18 mph from Southeast

Location: Christmas Island Aerodrome

Current Time: Sep 25, 2016 at 10:44:03 PM

Latest Report: Sep 25, 2016 at 10:00 PM


Visibility: 3 mi

Pressure: 29.92 "Hg

Humidity: 100%

Dew Point: 73 °F

Location of The SettlementLocation

Past Weather in The Settlement — Graph

°F

The Settlement Temperature Yesterday

Maximum temperature yesterday: 77 °F (at 1:00 PM)
Minimum temperature yesterday: 72 °F (at 1:30 AM)
Average temperature yesterday: 74 °F

High & Low Weather Summary for the Past Weeks

 TemperatureHumidityPressure
High81 °F (Sep 11, 9:30 AM)100% (Sep 13, 12:30 AM)30.01 "Hg (Sep 13, 12:30 AM)
Low72 °F (Sep 13, 12:30 AM)70% (Sep 11, 7:00 AM)29.80 "Hg (Sep 23, 4:00 PM)
Average76 °F85%29.91 "Hg
* Reported Sep 10 9:00 PM — Sep 25 9:00 PM, The Settlement, Weather by CustomWeather, © 2016

Note: Actual official high and low records may vary slightly from our data, if they occured in-between our weather recording intervals... More about our weather records

Advertising

The Settlement Weather History for the Previous 24 Hours

Scroll right to see more
 ConditionsComfort  
Time TempWeatherWind HumidityBarometerVisibility
9:00 PM
Sun, Sep 25
73 °FRain. Mostly cloudy.18 mph100%29.92 "Hg4 mi
8:00 PM73 °FLight rain. Mostly cloudy.20 mph100%29.89 "HgN/A
7:00 PM73 °FLight rain. Overcast.20 mph94%29.86 "HgN/A
6:00 PM73 °FLight rain. Mostly cloudy.17 mph100%29.83 "Hg1 mi
5:00 PM73 °FLots of rain. Low clouds.13 mph100%29.83 "Hg1 mi
4:00 PM75 °FLow clouds.17 mph94%29.83 "Hg3 mi
3:00 PM73 °FMostly cloudy.14 mph100%29.83 "Hg2 mi
2:00 PM73 °FMostly cloudy.10 mph100%29.83 "Hg1 mi
1:00 PM73 °FHeavy rain. Mostly cloudy.9 mph100%29.86 "Hg2 mi
12:00 PM73 °FLight rain. Low clouds.12 mph100%29.86 "Hg0 mi
11:00 AM75 °FHeavy rain. Mostly cloudy.12 mph94%29.89 "Hg1 mi
10:00 AM75 °FHeavy rain. Mostly cloudy.10 mph94%29.92 "Hg2 mi
9:30 AM75 °FHeavy rain. Mostly cloudy.14 mph100%29.92 "Hg1 mi
9:00 AM75 °FRain showers. Low clouds.9 mph100%29.89 "Hg2 mi
8:30 AM75 °FSprinkles. Low clouds.12 mph94%29.89 "Hg4 mi
8:00 AM75 °FHeavy rain. Mostly cloudy.14 mph100%29.89 "Hg0 mi
7:00 AM73 °FRain. Mostly cloudy.12 mph100%29.86 "Hg2 mi
6:30 AM73 °FHeavy rain. Mostly cloudy.10 mph100%29.86 "Hg1 mi
6:00 AM73 °FRain. Mostly cloudy.12 mph94%29.86 "Hg0 mi
5:00 AM72 °FHeavy rain. Low clouds.13 mph100%29.83 "Hg1 mi
4:00 AM75 °FRain. Mostly cloudy.8 mph100%29.83 "HgN/A
3:00 AM75 °FMostly cloudy.9 mph94%29.80 "HgN/A
2:30 AM75 °FPartly cloudy.9 mph94%29.83 "HgN/A
2:00 AM75 °FPartly cloudy.9 mph94%29.83 "HgN/A
1:30 AM73 °FPassing clouds.9 mph100%29.83 "HgN/A
1:00 AM73 °FPassing clouds.9 mph100%29.83 "HgN/A
12:00 AM73 °FLight rain. Partly cloudy.8 mph94%29.86 "HgN/A
11:00 PM
Sat, Sep 24
73 °FRain. Mostly cloudy.13 mph100%29.89 "Hg2 mi
10:00 PM73 °FLight rain. Mostly cloudy.10 mph100%29.89 "Hg1 mi
Weather by CustomWeather, © 2016

See weather overviewHow to use our weather pages